Location: Unspecified
(47.4992°N, 121.7766°W)
Time: 05:16:21
(UTC-08:00)

Cosmos 1674 - Visible Passes

Search period start: 16 January 2018 00:00
Search period end: 26 January 2018 00:00
Orbit: 496 x 522 km, 82.5° (Epoch: 15 January)

Date Brightness Start Highest point End Pass type
(mag) Time Alt. Az. Time Alt. Az. Time Alt. Az.
16 Jan 2.6 17:48:00 10° S 17:51:45 65° E 17:55:28 10° NNE visible
16 Jan 5.9 19:26:34 10° W 19:27:47 11° WNW 19:28:59 10° NW visible
17 Jan 2.8 17:31:09 10° S 17:34:47 50° E 17:38:26 10° NNE visible
17 Jan 5.7 19:08:41 10° W 19:10:42 14° WNW 19:12:43 10° NW visible
18 Jan 5.5 18:51:07 10° WSW 18:53:38 17° WNW 18:56:09 10° NNW visible
19 Jan 5.2 18:33:41 10° WSW 18:36:35 21° WNW 18:39:29 10° NNW visible
20 Jan 4.9 18:16:22 10° SW 18:19:32 25° WNW 18:22:43 10° NNW visible
21 Jan 4.5 17:59:08 10° SW 18:02:31 32° WNW 18:05:54 10° N visible
22 Jan 4.1 17:41:57 10° SSW 17:45:30 40° WNW 17:49:03 10° N visible
23 Jan 3.6 17:24:50 10° SSW 17:28:29 51° WNW 17:32:09 10° N visible
